EW2310 Pomezia IT current weather conditions

sailwx.info

Wind from 297 at 0 knots gusting 6

Air temperature 23.9° C
Dewpoint 19.2° C

Last reported at 2020-Jul-10 23:00 UTC.
Time now 2020-Jul-10 23:42 UTC

Location: N 41°40' E 012°31'.
View on Google Maps.

See reports from other nearby stations

  
Tides and Currents Weather Stations Pressure Air Temp Water Temp Dewpoint Dewpoint Depression Visibility Wind Speed Wind Dir Waves Ship Positions
date/time (UTC)wind fromknots sea level pressurealtimeterstation pressurevisibilityair tempwater tempwave heightnotes
2020-Jul-10 23:00 297 0 gusting 6 23.9
2020-Jul-10 22:55 320 4 gusting 7 23.9
2020-Jul-10 22:50 289 1 gusting 6 23.9
2020-Jul-10 22:45 297 0 gusting 6 23.9
2020-Jul-10 22:40 306 6 gusting 6 23.9
2020-Jul-10 22:35 303 0 gusting 7 23.9
2020-Jul-10 22:30 244 0 gusting 6 23.9
2020-Jul-10 22:25 300 4 gusting 6 23.9
2020-Jul-10 22:20 324 2 gusting 6 24.4
2020-Jul-10 22:15 300 4 gusting 6 24.4
2020-Jul-10 22:10 336 5 gusting 6 24.4
2020-Jul-10 22:05 306 3 gusting 6 24.4
2020-Jul-10 22:00 296 24.4
2020-Jul-10 21:55 257 0 gusting 4 24.4
2020-Jul-10 21:50 300 1 gusting 5 24.4
2020-Jul-10 21:45 319 3 gusting 6 24.4
2020-Jul-10 21:40 286 3 gusting 6 24.4
2020-Jul-10 21:35 315 3 gusting 4 24.4
2020-Jul-10 21:30 306 2 gusting 5 24.4
2020-Jul-10 21:25 297 1 gusting 3 24.4
2020-Jul-10 21:20 297 1 gusting 4 24.4
2020-Jul-10 21:15 299 25.0
2020-Jul-10 21:10 300 1 gusting 4 25.0
2020-Jul-10 21:05 317 1 gusting 4 25.0
2020-Jul-10 21:00 292 1 gusting 2 25.0
2020-Jul-10 20:55 299 0 gusting 4 25.0
2020-Jul-10 20:50 301 0 gusting 6 25.0
2020-Jul-10 20:45 307 1 gusting 4 25.0
2020-Jul-10 20:40 296 3 gusting 6 25.0
2020-Jul-10 20:35 332 2 gusting 6 25.0
2020-Jul-10 20:30 282 2 gusting 6 25.0
2020-Jul-10 20:25 315 2 gusting 4 25.0
2020-Jul-10 20:20 280 0 gusting 4 25.0
2020-Jul-10 20:15 318 3 gusting 6 25.6
2020-Jul-10 20:10 259 25.6
2020-Jul-10 20:05 295 1 gusting 7 25.6
2020-Jul-10 20:00 269 0 gusting 6 25.6
2020-Jul-10 19:55 300 3 gusting 6 25.6
2020-Jul-10 19:50 280 1 gusting 6 25.6
2020-Jul-10 19:45 314 4 gusting 6 25.6
2020-Jul-10 19:40 306 1 gusting 2 26.1
2020-Jul-10 19:35 301 26.1
2020-Jul-10 19:30 287 0 gusting 2 26.1
2020-Jul-10 19:25 304 0 gusting 6 26.1
2020-Jul-10 19:20 304 26.1
2020-Jul-10 19:15 296 26.1
2020-Jul-10 19:10 255 0 gusting 3 26.1
2020-Jul-10 19:05 303 0 gusting 5 26.1
2020-Jul-10 19:00 325 26.1
2020-Jul-10 18:55 265 26.1
2020-Jul-10 18:50 259 26.1
2020-Jul-10 18:45 298 0 gusting 3 26.7
2020-Jul-10 18:40 254 1 gusting 3 26.7
2020-Jul-10 18:35 181 1 gusting 3 26.7
2020-Jul-10 18:30 243 27.2
2020-Jul-10 18:25 306 27.2
2020-Jul-10 18:20 327 27.2
2020-Jul-10 18:15 238 27.2
2020-Jul-10 18:10 327 27.2
2020-Jul-10 18:05 322 1 gusting 4 27.2
2020-Jul-10 18:00 355 27.8
2020-Jul-10 17:55 202 27.8
2020-Jul-10 17:50 300 0 gusting 4 27.8
2020-Jul-10 17:45 302 28.3
2020-Jul-10 17:40 197 3 gusting 3 28.3
2020-Jul-10 17:35 278 0 gusting 4 28.3
2020-Jul-10 17:30 335 28.3
2020-Jul-10 17:25 170 28.9
2020-Jul-10 17:20 248 28.9
2020-Jul-10 17:15 040 1 gusting 3 28.9
2020-Jul-10 17:10 259 5 gusting 5 28.9
2020-Jul-10 17:05 243 28.9
2020-Jul-10 17:00 213 28.9
2020-Jul-10 16:55 061 28.9
2020-Jul-10 16:50 079 29.4
2020-Jul-10 16:45 298 29.4
2020-Jul-10 16:40 005 2 gusting 3 29.4
2020-Jul-10 16:35 084 29.4
2020-Jul-10 16:30 126 0 gusting 3 29.4
2020-Jul-10 16:25 138 29.4
2020-Jul-10 16:20 298 1 gusting 6 29.4
2020-Jul-10 16:15 031 29.4
2020-Jul-10 16:10 336 1 gusting 3 30.0
2020-Jul-10 16:05 236 0 gusting 8 30.0
2020-Jul-10 16:00 023 30.0
2020-Jul-10 15:55 172 1 gusting 2 30.6
2020-Jul-10 15:50 331 30.6
2020-Jul-10 15:45 265 3 gusting 6 30.6
2020-Jul-10 15:40 126 0 gusting 3 30.6
2020-Jul-10 15:35 269 30.6
2020-Jul-10 15:30 051 0 gusting 5 30.6
2020-Jul-10 15:25 173 30.6
2020-Jul-10 15:20 160 3 gusting 4 30.6
2020-Jul-10 15:15 011 3 gusting 8 30.6
2020-Jul-10 15:10 190 0 gusting 5 30.6
2020-Jul-10 15:05 216 1 gusting 3 30.6
2020-Jul-10 15:00 333 31.1
2020-Jul-10 14:55 040 31.1
2020-Jul-10 14:50 030 31.1
2020-Jul-10 14:45 146 31.1
2020-Jul-10 14:40 170 31.1
2020-Jul-10 14:35 298 1 gusting 6 31.1
2020-Jul-10 14:30 199 1 gusting 6 31.1
2020-Jul-10 14:25 337 0 gusting 8 31.7
2020-Jul-10 14:20 136 0 gusting 6 31.7
2020-Jul-10 14:15 235 31.7
2020-Jul-10 14:10 133 0 gusting 8 31.7
2020-Jul-10 14:05 150 3 gusting 7 31.7
2020-Jul-10 14:00 265 31.7
2020-Jul-10 13:55 174 0 gusting 9 31.1
2020-Jul-10 13:50 275 0 gusting 6 31.1
2020-Jul-10 13:45 074 1 gusting 5 31.1
2020-Jul-10 13:40 140 0 gusting 3 31.1
2020-Jul-10 13:35 011 1 gusting 7 31.1
2020-Jul-10 13:30 033 31.1
2020-Jul-10 13:25 040 31.1
2020-Jul-10 13:20 010 31.7
2020-Jul-10 13:15 338 1 gusting 3 31.7
2020-Jul-10 13:10 009 31.1
2020-Jul-10 13:05 327 0 gusting 3 31.1
2020-Jul-10 13:00 042 0 gusting 4 31.1
2020-Jul-10 12:55 018 31.1
2020-Jul-10 12:50 065 2 gusting 6 30.6
2020-Jul-10 12:45 346 2 gusting 8 30.6
2020-Jul-10 12:40 183 0 gusting 6 31.1
2020-Jul-10 12:35 101 3 gusting 4 31.1
2020-Jul-10 12:30 328 2 gusting 5 31.1
2020-Jul-10 12:25 31.1
2020-Jul-10 12:20 027 31.1
2020-Jul-10 12:15 306 1 gusting 7 31.1
2020-Jul-10 12:10 273 0 gusting 6 31.1
2020-Jul-10 12:05 005 0 gusting 3 31.1
2020-Jul-10 12:00 069 1 gusting 5 31.1
2020-Jul-10 11:55 087 0 gusting 2 31.1
2020-Jul-10 11:50 103 31.1
2020-Jul-10 11:45 065 0 gusting 4 31.1
2020-Jul-10 11:40 069 31.7
2020-Jul-10 11:35 186 1 gusting 2 31.7
2020-Jul-10 11:30 138 32.2
2020-Jul-10 11:25 123 31.7
2020-Jul-10 11:20 144 0 gusting 2 31.7
2020-Jul-10 11:15 182 0 gusting 6 31.7
2020-Jul-10 11:10 217 31.7
2020-Jul-10 11:05 050 31.1
2020-Jul-10 11:00 089 31.1
2020-Jul-10 10:55 199 31.1
2020-Jul-10 10:50 236 31.1
2020-Jul-10 10:45 098 31.1
2020-Jul-10 10:40 118 2 gusting 5 31.1
2020-Jul-10 10:35 123 0 gusting 6 31.1
2020-Jul-10 10:30 292 1 gusting 2 31.1
2020-Jul-10 10:25 084 0 gusting 5 31.1
2020-Jul-10 10:20 198 4 gusting 4 31.1
2020-Jul-10 10:15 163 0 gusting 6 31.1
2020-Jul-10 10:10 355 31.1
2020-Jul-10 10:05 039 0 gusting 5 31.1
2020-Jul-10 10:00 169 31.1
2020-Jul-10 09:55 202 31.1
2020-Jul-10 09:50 211 4 gusting 6 31.1
2020-Jul-10 09:45 166 0 gusting 3 31.1
2020-Jul-10 09:40 173 31.1
2020-Jul-10 09:35 180 31.1
2020-Jul-10 09:30 132 31.1
2020-Jul-10 09:25 240 1 gusting 2 31.1
2020-Jul-10 09:20 126 0 gusting 3 31.1
2020-Jul-10 09:15 229 31.1
2020-Jul-10 09:10 159 31.1
2020-Jul-10 09:05 113 0 gusting 1 31.1
2020-Jul-10 09:00 011 31.1
2020-Jul-10 08:55 215 0 gusting 3 31.1
2020-Jul-10 08:50 132 2 gusting 3 31.1
2020-Jul-10 08:45 331 0 gusting 3 31.1
2020-Jul-10 08:40 113 1 gusting 1 31.1
2020-Jul-10 08:35 211 31.1
2020-Jul-10 08:30 215 3 gusting 5 31.1
2020-Jul-10 08:25 273 0 gusting 2 31.1
2020-Jul-10 08:20 241 30.6
2020-Jul-10 08:15 284 30.6
2020-Jul-10 08:10 288 30.0
2020-Jul-10 08:05 287 30.0
2020-Jul-10 08:00 287 30.0
2020-Jul-10 07:55 287 0 gusting 1 29.4
2020-Jul-10 07:50 042 29.4
2020-Jul-10 07:45 042 28.9
2020-Jul-10 07:40 146 28.9
2020-Jul-10 07:35 137 3 gusting 3 28.9
2020-Jul-10 07:30 084 28.9
2020-Jul-10 07:25 133 28.9
2020-Jul-10 07:20 109 28.3
2020-Jul-10 07:15 107 0 gusting 2 28.3
2020-Jul-10 07:10 140 27.8
2020-Jul-10 07:05 139 27.2
2020-Jul-10 07:00 131 27.2
2020-Jul-10 06:55 131 26.7
2020-Jul-10 06:50 133 0 gusting 3 26.7
2020-Jul-10 06:45 121 26.7
2020-Jul-10 06:40 040 26.7
2020-Jul-10 06:35 062 26.1
2020-Jul-10 06:30 024 26.1
2020-Jul-10 06:25 355 26.1
2020-Jul-10 06:20 350 26.1
2020-Jul-10 06:15 355 26.1
2020-Jul-10 06:10 325 25.6
2020-Jul-10 06:05 323 25.6
2020-Jul-10 06:00 323 1 gusting 2 25.6
2020-Jul-10 05:55 313 25.0
2020-Jul-10 05:51 313 25.0
2020-Jul-10 05:45 312 0 gusting 1 25.0
2020-Jul-10 05:40 320 24.4
2020-Jul-10 05:35 329 25.0
2020-Jul-10 05:30 322 25.0
2020-Jul-10 05:25 325 25.0
2020-Jul-10 05:20 320 0 gusting 0 24.4
2020-Jul-10 05:15 323 24.4
2020-Jul-10 05:10 323 24.4
2020-Jul-10 05:05 323 0 gusting 0 23.9
2020-Jul-10 05:00 323 23.9
2020-Jul-10 04:55 323 23.9
2020-Jul-10 04:50 321 0 gusting 2 23.9
2020-Jul-10 04:45 328 23.9
2020-Jul-10 04:40 312 23.3
2020-Jul-10 04:35 319 23.3
2020-Jul-10 04:30 331 1 gusting 4 23.3
2020-Jul-10 04:25 327 1 gusting 4 23.3
2020-Jul-10 04:20 332 23.3
2020-Jul-10 04:15 298 0 gusting 5 23.3
2020-Jul-10 04:10 304 23.3
2020-Jul-10 04:05 312 0 gusting 3 23.3
2020-Jul-10 04:00 325 22.8
2020-Jul-10 03:55 303 22.8
2020-Jul-10 03:50 304 0 gusting 4 23.3
2020-Jul-10 03:45 307 3 gusting 6 23.3
2020-Jul-10 03:40 303 4 gusting 6 23.3
2020-Jul-10 03:35 311 0 gusting 4 23.3
2020-Jul-10 03:30 322 1 gusting 4 23.3
2020-Jul-10 03:25 309 2 gusting 3 23.3
2020-Jul-10 03:20 307 23.3
2020-Jul-10 03:15 292 23.3
2020-Jul-10 03:10 277 23.3
2020-Jul-10 03:05 317 23.3
2020-Jul-10 03:00 306 23.3
2020-Jul-10 02:55 319 1 gusting 3 23.3
2020-Jul-10 02:50 306 23.3
2020-Jul-10 02:45 317 23.3
2020-Jul-10 02:40 318 0 gusting 2 23.3
2020-Jul-10 02:35 317 1 gusting 2 23.9
2020-Jul-10 02:30 300 23.9
2020-Jul-10 02:25 325 23.9
2020-Jul-10 02:20 320 0 gusting 3 23.9
2020-Jul-10 02:15 321 0 gusting 4 23.9
2020-Jul-10 02:10 321 2 gusting 2 23.3
2020-Jul-10 02:05 315 2 gusting 3 23.3
2020-Jul-10 02:00 306 2 gusting 6 23.3
2020-Jul-10 01:56 333 1 gusting 4 23.3
2020-Jul-10 01:50 325 4 gusting 6 23.3
2020-Jul-10 01:46 308 4 gusting 4 23.3
2020-Jul-10 01:40 288 0 gusting 3 23.3
2020-Jul-10 01:35 317 2 gusting 4 23.3
2020-Jul-10 01:30 315 1 gusting 4 23.3
2020-Jul-10 01:25 316 4 gusting 4 23.3
2020-Jul-10 01:20 298 23.3
2020-Jul-10 01:15 299 2 gusting 4 23.3
2020-Jul-10 01:10 309 0 gusting 3 23.3
2020-Jul-10 01:05 313 2 gusting 4 23.3
2020-Jul-10 01:00 308 1 gusting 3 23.3
2020-Jul-10 00:55 324 0 gusting 3 23.3
2020-Jul-10 00:50 288 1 gusting 5 23.3
2020-Jul-10 00:45 304 23.9
2020-Jul-10 00:40 297 23.9
2020-Jul-10 00:35 306 0 gusting 5 23.9
2020-Jul-10 00:30 292 1 gusting 2 23.9
2020-Jul-10 00:25 304 23.9
2020-Jul-10 00:20 311 23.9
2020-Jul-10 00:15 298 0 gusting 2 23.9
2020-Jul-10 00:10 303 23.9
2020-Jul-10 00:05 266 23.9
2020-Jul-10 00:00 321 24.4
2020-Jul-09 23:55 302 24.4
2020-Jul-09 23:50 256 1 gusting 3 24.4
2020-Jul-09 23:45 208 24.4
2020-Jul-09 23:40 244 24.4
2020-Jul-09 23:35 242 1 gusting 3 24.4
2020-Jul-09 23:30 012 24.4
2020-Jul-09 23:25 244 0 gusting 3 24.4
2020-Jul-09 23:20 217 24.4
2020-Jul-09 23:15 291 1 gusting 3 24.4
2020-Jul-09 23:10 286 0 gusting 1 24.4
2020-Jul-09 23:05 301 24.4
2020-Jul-09 23:00 305 24.4
2020-Jul-09 22:55 275 0 gusting 1 24.4
2020-Jul-09 22:50 292 25.0
2020-Jul-09 22:45 264 0 gusting 1 25.0
2020-Jul-09 22:40 296 1 gusting 2 25.0
2020-Jul-09 22:35 346 25.0
2020-Jul-09 22:30 271 25.0
2020-Jul-09 22:25 232 25.0
2020-Jul-09 22:20 286 25.0
2020-Jul-09 22:15 234 1 gusting 2 25.0
2020-Jul-09 22:10 307 25.6
2020-Jul-09 22:05 209 0 gusting 5 25.6
2020-Jul-09 22:00 294 0 gusting 2 25.6
2020-Jul-09 21:55 285 25.6
2020-Jul-09 21:50 267 25.6
2020-Jul-09 21:45 252 25.6
2020-Jul-09 21:40 278 26.1
2020-Jul-09 21:35 254 26.1
2020-Jul-09 21:30 296 0 gusting 0 26.1
2020-Jul-09 21:25 297 0 gusting 1 26.1
2020-Jul-09 21:20 265 26.1
2020-Jul-09 21:15 309 26.1
2020-Jul-09 21:10 287 26.1
2020-Jul-09 21:05 327 26.1
2020-Jul-09 21:00 248 26.1
2020-Jul-09 20:55 269 26.1
2020-Jul-09 20:50 269 26.1
2020-Jul-09 20:45 267 26.1
2020-Jul-09 20:40 267 26.1
2020-Jul-09 20:35 291 0 gusting 1 26.1
2020-Jul-09 20:30 271 1 gusting 1 26.7
2020-Jul-09 20:25 265 26.7
2020-Jul-09 20:20 297 26.7
2020-Jul-09 20:15 318 26.7
2020-Jul-09 20:10 301 26.7
2020-Jul-09 20:05 257 26.7
2020-Jul-09 20:00 326 26.7
2020-Jul-09 19:55 265 0 gusting 3 26.7
2020-Jul-09 19:50 292 26.7
2020-Jul-09 19:45 293 26.7
2020-Jul-09 19:40 316 1 gusting 3 26.7
2020-Jul-09 19:35 235 26.7
2020-Jul-09 19:30 340 26.7
2020-Jul-09 19:25 265 26.7
2020-Jul-09 19:20 297 27.2
2020-Jul-09 19:15 277 27.2
2020-Jul-09 19:10 302 0 gusting 3 27.2
2020-Jul-09 19:05 291 0 gusting 3 27.2
2020-Jul-09 19:00 189 27.2
2020-Jul-09 18:55 240 27.8
2020-Jul-09 18:50 244 0 gusting 3 27.8
2020-Jul-09 18:45 299 27.8
2020-Jul-09 18:40 246 27.8
2020-Jul-09 18:35 294 0 gusting 3 28.3
2020-Jul-09 18:30 281 0 gusting 3 28.3
2020-Jul-09 18:25 205 1 gusting 3 28.3
2020-Jul-09 18:20 299 28.9
2020-Jul-09 18:15 318 1 gusting 3 28.9
2020-Jul-09 18:10 325 0 gusting 6 28.9
2020-Jul-09 18:05 211 0 gusting 5 28.9
2020-Jul-09 18:00 245 0 gusting 1 28.9
2020-Jul-09 17:55 271 29.4
2020-Jul-09 17:50 286 29.4
2020-Jul-09 17:45 240 29.4
2020-Jul-09 17:40 193 29.4
2020-Jul-09 17:35 098 29.4
2020-Jul-09 17:30 023 29.4
2020-Jul-09 17:25 022 29.4
2020-Jul-09 17:20 302 30.0
2020-Jul-09 17:15 071 0 gusting 2 30.0
2020-Jul-09 17:10 100 30.0
2020-Jul-09 17:05 312 30.6
2020-Jul-09 17:00 222 30.6
2020-Jul-09 16:55 311 30.6
2020-Jul-09 16:50 301 30.6
2020-Jul-09 16:45 314 0 gusting 2 30.6
2020-Jul-09 16:40 333 30.6
2020-Jul-09 16:35 310 30.6
2020-Jul-09 16:30 203 30.6
2020-Jul-09 16:25 257 3 gusting 6 30.6
2020-Jul-09 16:20 348 0 gusting 5 30.6
2020-Jul-09 16:15 273 0 gusting 3 30.6
2020-Jul-09 16:10 125 30.6
2020-Jul-09 16:05 284 0 gusting 5 30.6
2020-Jul-09 16:00 196 30.6
2020-Jul-09 15:55 198 30.6
2020-Jul-09 15:50 142 30.0
2020-Jul-09 15:45 059 30.0
2020-Jul-09 15:40 015 30.0
2020-Jul-09 15:35 123 30.0
2020-Jul-09 15:30 148 30.0
2020-Jul-09 15:25 088 30.0
2020-Jul-09 15:20 355 5 gusting 5 30.0
2020-Jul-09 15:15 346 1 gusting 5 30.0
2020-Jul-09 15:10 053 3 gusting 6 30.0
2020-Jul-09 15:05 133 30.0
2020-Jul-09 15:00 086 0 gusting 5 30.6
2020-Jul-09 14:55 126 30.6
2020-Jul-09 14:50 294 0 gusting 4 30.6
2020-Jul-09 14:45 093 1 gusting 4 30.6
2020-Jul-09 14:40 242 0 gusting 3 30.6
2020-Jul-09 14:35 175 2 gusting 3 30.6
2020-Jul-09 14:30 302 2 gusting 5 30.6
2020-Jul-09 14:25 083 4 gusting 6 30.6
2020-Jul-09 14:20 289 30.6
2020-Jul-09 14:15 341 30.6
2020-Jul-09 14:10 011 30.6
2020-Jul-09 14:05 028 0 gusting 6 30.6
2020-Jul-09 14:00 349 30.6
2020-Jul-09 13:55 121 30.6
2020-Jul-09 13:50 016 0 gusting 7 30.6
2020-Jul-09 13:45 026 2 gusting 6 30.0
2020-Jul-09 13:40 030 2 gusting 5 30.0
2020-Jul-09 13:35 066 30.0
2020-Jul-09 13:30 148 1 gusting 6 30.0
2020-Jul-09 13:25 182 0 gusting 6 30.0
2020-Jul-09 13:20 349 1 gusting 6 30.0
2020-Jul-09 13:15 30.6
2020-Jul-09 13:10 088 0 gusting 6 30.6
2020-Jul-09 13:05 163 0 gusting 5 30.6
2020-Jul-09 13:00 267 0 gusting 4 30.6
2020-Jul-09 12:55 355 30.6
2020-Jul-09 12:50 178 1 gusting 6 30.6
2020-Jul-09 12:45 150 0 gusting 4 30.6
2020-Jul-09 12:40 168 0 gusting 3 30.0
2020-Jul-09 12:35 139 2 gusting 5 30.0
2020-Jul-09 12:30 255 2 gusting 6 30.0
2020-Jul-09 12:25 175 2 gusting 6 30.0
2020-Jul-09 12:20 188 2 gusting 6 30.0
2020-Jul-09 12:15 175 0 gusting 7 30.6
2020-Jul-09 12:10 336 0 gusting 2 30.0
2020-Jul-09 12:05 200 0 gusting 6 30.0
2020-Jul-09 12:00 191 0 gusting 6 30.0
2020-Jul-09 11:55 244 30.0
2020-Jul-09 11:50 347 30.0
2020-Jul-09 11:45 136 3 gusting 4 30.0
2020-Jul-09 11:40 220 3 gusting 6 30.0
2020-Jul-09 11:35 130 30.0
2020-Jul-09 11:30 217 30.0
2020-Jul-09 11:25 143 3 gusting 5 30.0
2020-Jul-09 11:20 225 30.0
2020-Jul-09 11:15 164 30.6
2020-Jul-09 11:10 096 30.6
2020-Jul-09 11:05 183 0 gusting 7 30.6
2020-Jul-09 11:00 207 5 gusting 6 30.6
2020-Jul-09 10:55 355 30.6
2020-Jul-09 10:50 144 30.6
2020-Jul-09 10:45 296 0 gusting 6 30.6
2020-Jul-09 10:40 011 30.6
2020-Jul-09 10:35 319 0 gusting 8 30.0
2020-Jul-09 10:30 170 30.6
2020-Jul-09 10:25 202 0 gusting 4 30.6
2020-Jul-09 10:20 072 0 gusting 6 30.6
2020-Jul-09 10:15 199 30.6
2020-Jul-09 10:10 165 3 gusting 4 30.6
2020-Jul-09 10:05 181 6 gusting 6 30.6
2020-Jul-09 10:00 040 0 gusting 6 30.0
2020-Jul-09 09:55 218 3 gusting 5 30.6
2020-Jul-09 09:50 190 30.6
2020-Jul-09 09:45 213 30.6
2020-Jul-09 09:40 210 0 gusting 4 30.6
2020-Jul-09 09:35 279 0 gusting 3 30.6
2020-Jul-09 09:30 167 30.6
2020-Jul-09 09:25 275 2 gusting 6 30.6
2020-Jul-09 09:20 323 30.6
2020-Jul-09 09:15 299 0 gusting 2 30.0
2020-Jul-09 09:10 236 30.0
2020-Jul-09 09:05 292 30.0
2020-Jul-09 09:00 207 30.0
2020-Jul-09 08:55 258 30.0
2020-Jul-09 08:50 258 30.0
2020-Jul-09 08:45 252 30.0
2020-Jul-09 08:41 249 30.0
2020-Jul-09 08:35 250 30.0
2020-Jul-09 08:30 241 30.0
2020-Jul-09 08:25 238 29.4
2020-Jul-09 08:20 277 29.4
2020-Jul-09 08:15 277 28.9
2020-Jul-09 08:10 278 2 gusting 2 28.9
2020-Jul-09 08:05 281 0 gusting 1 28.9
2020-Jul-09 08:00 281 0 gusting 2 28.3
2020-Jul-09 07:55 282 28.3
2020-Jul-09 07:50 283 28.3
2020-Jul-09 07:45 275 1 gusting 2 28.3
2020-Jul-09 07:40 275 28.3
2020-Jul-09 07:35 275 27.8
2020-Jul-09 07:30 275 27.8
2020-Jul-09 07:25 275 0 gusting 2 27.2
2020-Jul-09 07:20 275 27.2
2020-Jul-09 07:15 275 0 gusting 1 27.2
2020-Jul-09 07:10 271 26.7
2020-Jul-09 07:05 269 26.7
2020-Jul-09 07:00 306 26.7
2020-Jul-09 06:55 306 26.1
2020-Jul-09 06:50 306 26.1
2020-Jul-09 06:45 306 0 gusting 2 25.6
2020-Jul-09 06:40 306 0 gusting 2 25.6
2020-Jul-09 06:35 306 25.6
2020-Jul-09 06:30 306 25.0
2020-Jul-09 06:25 304 25.0
2020-Jul-09 06:20 304 2 gusting 2 25.0
2020-Jul-09 06:15 304 25.0
2020-Jul-09 06:10 304 25.0
2020-Jul-09 06:05 304 24.4
2020-Jul-09 06:00 304 24.4
2020-Jul-09 05:55 304 24.4
2020-Jul-09 05:50 298 24.4
2020-Jul-09 05:45 298 24.4
2020-Jul-09 05:40 298 24.4
2020-Jul-09 05:35 298 24.4
2020-Jul-09 05:30 298 23.9
2020-Jul-09 05:25 298 23.3
2020-Jul-09 05:20 298 1 gusting 3 23.3
2020-Jul-09 05:15 298 0 gusting 3 23.3
2020-Jul-09 05:10 298 1 gusting 3 23.3
2020-Jul-09 05:05 298 3 gusting 4 22.8
2020-Jul-09 05:00 298 0 gusting 1 22.8
2020-Jul-09 04:55 298 22.8
2020-Jul-09 04:50 298 22.8
2020-Jul-09 04:45 298 22.8
2020-Jul-09 04:40 298 22.8
2020-Jul-09 04:35 298 22.8
2020-Jul-09 04:30 298 22.8
2020-Jul-09 04:25 298 22.8
2020-Jul-09 04:20 298 22.8
2020-Jul-09 04:15 298 22.2
2020-Jul-09 04:10 298 22.2
2020-Jul-09 04:05 298 22.2
2020-Jul-09 04:00 298 0 gusting 1 22.2
2020-Jul-09 03:55 298 22.2
2020-Jul-09 03:50 298 22.2
2020-Jul-09 03:45 298 22.2
2020-Jul-09 03:40 298 22.2
2020-Jul-09 03:35 298 22.2
2020-Jul-09 03:30 298 22.2
2020-Jul-09 03:25 298 22.2
2020-Jul-09 03:20 298 22.2
2020-Jul-09 03:15 298 22.2
2020-Jul-09 03:10 298 22.2
2020-Jul-09 03:05 300 0 gusting 2 22.2
2020-Jul-09 03:00 300 22.8
2020-Jul-09 02:55 300 22.8
2020-Jul-09 02:50 300 0 gusting 1 22.8
2020-Jul-09 02:45 300 0 gusting 3 22.8
2020-Jul-09 02:40 300 22.8
2020-Jul-09 02:35 300 1 gusting 6 22.8
2020-Jul-09 02:30 300 22.8
2020-Jul-09 02:25 300 0 gusting 3 22.8
2020-Jul-09 02:20 300 0 gusting 2 22.8
2020-Jul-09 02:15 300 0 gusting 4 22.8
2020-Jul-09 02:10 299 2 gusting 3 22.8
2020-Jul-09 02:05 299 22.8
2020-Jul-09 02:00 299 22.8
2020-Jul-09 01:55 299 22.8
2020-Jul-09 01:50 299 22.8
2020-Jul-09 01:45 299 0 gusting 2 22.8
2020-Jul-09 01:40 299 0 gusting 2 22.8
2020-Jul-09 01:35 300 22.8
2020-Jul-09 01:30 300 0 gusting 4 22.8
2020-Jul-09 01:25 299 0 gusting 4 22.8
2020-Jul-09 01:20 290 0 gusting 1 22.8
2020-Jul-09 01:15 290 22.8
2020-Jul-09 01:10 290 22.8
2020-Jul-09 01:05 290 22.8
2020-Jul-09 01:00 290 22.8
2020-Jul-09 00:55 290 22.8
2020-Jul-09 00:50 290 22.8
2020-Jul-09 00:45 290 0 gusting 1 23.3
2020-Jul-09 00:40 290 23.3
2020-Jul-09 00:35 290 23.3
2020-Jul-09 00:30 290 23.3
2020-Jul-09 00:25 290 0 gusting 1 23.3
2020-Jul-09 00:20 290 23.3
2020-Jul-09 00:15 290 23.3
2020-Jul-09 00:10 290 23.3
2020-Jul-09 00:05 290 0 gusting 0 23.3
2020-Jul-09 00:00 289 23.3
2020-Jul-08 23:55 290 23.3
2020-Jul-08 23:50 290 23.3
2020-Jul-08 23:45 290 23.3
2020-Jul-08 23:40 289 2 gusting 2 23.3
2020-Jul-08 23:35 289 23.3
2020-Jul-08 23:30 289 23.3
2020-Jul-08 23:25 289 23.9
2020-Jul-08 23:20 289 23.9
2020-Jul-08 23:15 289 23.9
2020-Jul-08 23:10 289 23.9
2020-Jul-08 23:05 289 23.9
2020-Jul-08 23:00 289 0 gusting 3 23.9